sat.trackr.live / text

‹ back to catalog

ONEWEB-0406

NORAD 50486 · 2021-132T

PAYLOAD ACTIVE UNKNOWN

§ Identity

Operator
Country
UK
Launch date
2021-12-27
Launch site
TYMSC
Launch vehicle
Mass (kg)
RCS (m²)

Purposes: comms

External: N2YO · Heavens-Above · Gunter

§ Orbital elements

Epoch: 2026-05-25T01:22:00.347808Z

Period
109.20 min
Inclination
87.9160°
Eccentricity
0.0002337
Mean motion
13.18687825 rev/d
Perigee alt
1,188.0 km
Apogee alt
1,191.5 km
Semi-major
7,567.9 km
B*
-1.1345e-4
RAAN
340.0604°
Arg perigee
97.0181°
Mean anomaly
263.1217°
Rev number
21,857

§ Raw data

ONEWEB-04061 50486U 21132T   26145.05694847 -.00000032  00000+0 -11345-3 0  99962 50486  87.9160 340.0604 0002337  97.0181 263.1217 13.18687825218578

JSON: /api/v1/satellites/50486 · /tle

For live sub-satellite position, see the globe view (requires WebGL).

§ Visibility from observer

Set your observer location to see the next 7 days of passes ≥ 10°. The values pass through the URL so the page stays shareable.

No JS? Fill the form by hand. The geolocation button needs JavaScript.